Wind_Speed
4 14 14 11 5 4 17 9 14 19 20 15 17 20 15 16 19 18 16 11 18 13 10 11 8 6 5 13 20 21 23 22 19 14 11 9 8 9 11 9 8 6 6 8
12 17 12 7 6 4 14 12 9 6 14 10 23 19 22 22 21 21 18 13 16 16 14 12 10 7 6 10 16 22 20 20 16 14 14 12 8 6 6 12 12 10 10 14
15 17 11 7 11 10 18 18 17 12 25 13 26 14 20 23 26 24 18 13 19 14 17 10 9 9 4 6 8 16 17 15 18 17 18 14 12 11 14 14 15 10 19 18
19 9 5 8 10 14 20 14 18 20 25 21 24 12 23 19 25 29 23 21 18 16 19 12 9 8 4 8 7 11 15 17 17 19 17 16 14 16 16 17 17 17 15 15
17 15 15 10 7 12 9 7 17 25 22 18 22 8 15 25 33 32 26 24 21 19 20 12 7 7 4 1 2 8 10 17 19 18 18 17 16 16 16 16 16 18 14 17
20 21 19 12 12 10 9 8 8 12 12 11 28 24 23 20 36 34 29 27 21 23 21 17 10 6 5 5 9 11 13 19 20 14 17 15 13 19 18 17 13 15 16 19
19 21 16 18 17 20 8 10 13 8 10 12 3 11 4 15 30 33 32 31 25 28 23 18 17 13 12 15 15 15 18 14 13 4 17 18 16 18 13 16 14 15 16 19
22 22 17 20 26 17 18 14 15 4 3 14 20 15 8 15 19 36 31 32 22 28 26 20 25 24 25 24 22 19 17 18 17 18 13 20 15 14 14 13 15 16 15 14
18 27 18 19 27 22 13 21 16 21 24 16 4 13 17 21 26 30 25 24 31 22 31 32 31 30 30 29 29 27 19 19 16 20 17 17 18 18 18 17 20 19 16 17
20 20 21 17 14 11 12 13 17 14 3 4 9 20 22 24 25 28 29 35 37 31 35 35 39 36 34 32 32 31 27 28 26 26 24 20 22 23 22 24 24 21 20 16
20 24 27 22 15 15 10 15 19 15 16 2 2 4 22 33 30 34 27 26 33 39 37 37 37 41 39 31 29 31 28 26 22 22 25 27 26 26 28 28 31 31 23 21
15 20 11 17 21 16 19 19 19 14 14 20 20 8 20 29 26 25 21 21 24 29 31 32 36 40 37 34 34 35 33 27 22 26 26 26 27 29 25 15 12 15 19 18
17 10 6 19 21 10 17 15 15 19 22 17 7 12 17 17 18 16 16 14 17 22 25 30 34 36 36 36 36 31 28 26 25 19 18 17 16 15 14 17 19 15 21 29
8 9 11 11 11 15 11 7 17 19 20 13 8 19 18 12 13 6 9 10 9 12 19 24 27 30 33 32 32 26 22 18 18 15 10 11 19 22 27 18 15 20 23 26
12 9 13 17 14 14 11 9 19 9 17 7 14 7 12 12 15 8 7 4 7 13 16 20 21 20 15 16 16 16 17 13 10 5 5 9 11 15 15 17 22 26 30 33
12 14 12 23 16 11 9 14 9 5 3 8 10 16 16 10 9 9 10 6 8 10 14 15 13 10 9 6 6 6 5 6 8 10 13 16 19 20 21 24 28 31 34 34
16 16 17 15 7 7 3 16 18 7 13 15 10 10 7 9 10 12 12 12 15 9 16 10 9 8 5 6 9 10 12 13 15 17 18 20 22 24 25 26 26 27 29 32
15 9 6 7 5 4 2 4 11 10 15 14 10 6 3 8 11 7 16 10 11 17 9 5 6 8 11 11 14 16 17 19 20 21 21 21 23 22 23 24 25 27 30 33
26 8 6 3 6 5 4 3 8 20 12 10 9 3 4 10 12 8 7 11 12 12 12 7 8 11 14 15 18 21 22 21 22 22 22 22 22 22 22 22 24 26 29 32
6 5 3 9 6 3 1 3 3 20 15 12 9 6 4 2 4 12 17 18 13 11 9 11 14 17 21 22 23 23 22 20 20 20 20 20 20 20 21 23 25 27 29 31
5 5 2 2 5 8 8 7 4 4 4 8 8 15 14 14 14 14 21 22 18 14 13 17 20 23 23 21 20 20 20 20 20 18 18 18 18 19 22 24 25 26 25 24
6 4 7 3 3 5 15 12 5 2 6 6 5 5 9 9 10 15 16 18 20 20 21 20 22 21 22 21 21 20 20 19 18 16 17 17 18 20 23 24 22 19 22 28
2 0 7 6 1 4 6 7 7 10 10 8 5 1 4 7 11 14 17 20 20 21 19 24 24 19 19 20 21 21 20 18 17 16 17 18 19 22 22 19 15 20 23 27
7 0 4 2 2 6 10 12 9 11 9 12 12 11 4 8 10 14 18 21 22 23 24 27 20 18 20 22 23 23 21 18 17 17 18 20 22 23 20 11 15 21 24 30
4 7 5 2 11 11 8 8 13 8 6 18 17 17 16 19 15 16 17 22 25 27 29 22 19 19 21 21 22 22 19 17 16 18 21 22 21 17 12 9 12 16 21 29
6 5 7 12 12 14 14 13 10 8 8 4 5 9 12 12 17 20 22 23 25 24 22 20 19 20 21 21 20 18 16 15 18 20 22 18 8 6 8 10 12 15 22 30
Wind_Direction
245 208 228 227 124 278 150 103 206 186 185 166 154 158 183 183 184 187 197 189 207 233 247 272 284 208 204 212 196 203 200 192 189 191 183 195 196 195 199 220 254 269 265 260
246 253 276 189 120 230 205 177 111 274 215 195 155 166 187 195 202 200 205 209 208 221 241 263 287 256 226 203 196 204 204 195 196 201 211 217 233 255 249 231 243 273 272 273
265 277 139 208 208 237 228 228 194 168 172 202 174 178 196 195 202 212 214 220 209 242 238 269 298 295 244 203 208 211 207 196 208 209 220 232 257 243 263 259 274 253 269 264
279 273 267 253 260 266 257 286 199 191 173 163 175 192 198 186 191 201 212 209 218 234 241 260 286 317 272 214 206 206 219 208 215 219 230 249 258 255 265 272 269 275 262 272
278 262 320 222 263 287 291 351 183 201 199 206 190 161 189 198 202 195 198 220 227 236 239 266 266 285 21 194 230 219 218 218 214 222 237 247 261 279 269 268 274 280 274 267
266 263 278 268 242 274 309 308 284 267 272 199 221 201 206 227 193 191 199 207 221 231 236 248 243 250 281 242 254 232 211 214 223 259 247 249 252 271 275 272 280 285 274 276
263 259 268 269 271 252 277 274 283 279 239 243 246 174 200 201 184 192 205 199 206 220 236 238 223 223 226 245 265 257 261 182 224 250 251 239 246 254 264 272 282 283 292 288
279 267 250 237 247 255 236 245 251 263 310 316 140 157 192 181 182 194 198 205 212 205 224 226 205 206 218 233 240 248 239 250 263 264 248 241 245 237 247 267 279 282 289 304
269 280 266 289 246 228 244 249 260 271 284 290 121 118 132 151 162 184 197 185 177 197 202 210 209 218 226 227 228 227 247 247 263 236 252 247 256 258 255 261 276 286 293 308
256 265 278 284 201 210 236 251 283 296 288 262 162 175 152 151 169 175 184 180 188 203 209 214 215 218 220 223 233 243 257 258 262 256 267 263 258 255 251 263 262 261 270 275
257 267 266 262 283 224 240 252 262 281 280 301 347 78 158 183 180 174 177 187 191 202 214 219 221 224 228 237 246 262 255 263 253 254 261 257 256 254 256 259 268 262 261 258
239 255 228 272 270 263 252 253 254 252 267 284 278 96 189 192 188 183 199 216 226 220 224 229 233 235 236 246 253 260 254 245 261 268 257 256 257 256 254 249 246 249 253 254
228 233 252 272 274 299 219 238 230 264 268 275 262 139 187 172 209 202 202 212 214 221 230 232 235 238 240 252 260 258 266 282 288 265 248 253 253 229 235 270 257 270 251 265
245 193 195 266 298 306 302 262 254 267 283 291 317 164 201 208 233 221 218 201 209 229 241 239 240 247 255 257 262 273 280 276 256 237 252 263 266 271 269 257 274 281 285 286
255 248 234 261 292 313 339 289 277 310 276 309 142 167 195 223 272 304 292 184 230 235 245 250 256 265 274 280 276 272 270 247 236 253 258 272 271 279 285 284 283 282 280 281
245 258 253 261 300 285 340 28 271 222 96 88 105 150 196 220 280 279 248 255 283 276 264 261 269 271 266 223 205 204 226 251 269 276 279 279 278 278 275 273 275 279 281 283
240 256 276 228 278 217 56 31 19 64 69 70 75 135 211 282 279 236 241 301 285 325 311 261 244 236 243 270 287 285 284 284 283 283 280 277 280 280 282 285 289 292 293 294
221 256 319 131 169 71 52 30 61 58 73 65 82 106 267 308 307 291 277 272 274 331 326 243 262 273 277 287 284 284 286 288 287 286 285 285 285 292 297 300 300 299 299 298
264 282 233 291 92 112 176 56 58 35 43 75 61 63 286 261 271 292 282 284 313 328 320 293 288 290 294 294 296 297 297 296 293 294 298 300 303 304 303 300 298 297 298 300
129 189 125 86 92 80 289 37 276 244 283 325 177 136 230 227 242 176 202 229 261 292 290 282 286 290 294 299 299 298 297 298 296 298 299 300 299 299 298 300 303 307 306 307
281 262 333 99 115 153 144 152 163 253 194 208 197 186 191 222 238 265 231 240 254 279 283 286 290 294 298 302 303 302 298 297 296 294 293 290 294 299 302 304 309 311 315 320
66 32 38 32 86 106 159 183 202 180 216 224 247 253 242 243 248 263 279 285 288 294 298 302 306 305 306 308 304 300 294 288 284 282 284 291 298 303 306 308 316 322 329 349
67 342 304 201 296 286 190 210 236 149 160 188 187 156 285 283 277 270 271 283 281 297 301 306 307 303 307 308 305 302 298 291 285 287 290 296 302 302 299 305 327 322 337 336
230 43 154 191 236 123 153 180 215 223 240 225 224 227 282 282 284 273 280 287 292 303 304 310 305 310 315 312 305 299 293 287 293 297 297 300 301 300 292 304 319 332 347 348
160 204 208 209 161 156 186 241 268 255 234 228 234 248 247 241 256 277 281 286 289 295 303 304 308 307 307 303 298 294 293 297 303 302 301 300 301 302 304 289 315 342 351 348
225 230 190 190 211 223 222 228 237 249 300 308 287 281 264 264 256 256 267 273 279 289 295 296 300 303 303 303 301 299 298 297 299 301 302 300 291 307 325 329 323 345 347 347
Height
3186 3187 3183 3187 3185 3185 3184 3189 3186 3193 3196 3199 3201 3204 3205 3205 3206 3205 3206 3207 3208 3210 3210 3211 3213 3213 3215 3216 3218 3220 3223 3227 3230 3233 3235 3236 3236 3237 3240 3239 3239 3240 3242 3243
3184 3180 3182 3184 3183 3182 3182 3185 3185 3192 3198 3199 3198 3203 3203 3203 3205 3205 3205 3207 3207 3210 3211 3211 3212 3214 3215 3216 3218 3220 3222 3226 3230 3233 3235 3236 3238 3238 3239 3239 3238 3241 3240 3240
3179 3181 3183 3182 3179 3179 3180 3180 3181 3181 3189 3195 3196 3196 3197 3200 3203 3207 3206 3208 3207 3208 3210 3211 3212 3213 3215 3216 3218 3219 3222 3226 3229 3230 3231 3233 3235 3238 3237 3237 3237 3239 3237 3236
3177 3178 3183 3183 3183 3182 3181 3178 3185 3186 3185 3192 3194 3197 3194 3196 3199 3203 3203 3205 3206 3206 3208 3211 3211 3212 3215 3216 3217 3219 3220 3223 3225 3227 3229 3231 3233 3233 3234 3234 3234 3234 3235 3234
3177 3176 3178 3180 3182 3181 3181 3180 3180 3180 3182 3185 3187 3187 3185 3187 3189 3194 3200 3201 3199 3199 3203 3207 3211 3212 3213 3215 3217 3217 3219 3219 3219 3222 3224 3228 3229 3231 3232 3232 3231 3229 3231 3231
3172 3172 3176 3176 3178 3179 3179 3179 3180 3178 3177 3179 3172 3174 3177 3177 3180 3189 3194 3195 3197 3199 3202 3205 3208 3209 3211 3214 3215 3216 3219 3220 3222 3220 3220 3222 3225 3227 3229 3231 3231 3229 3229 3229
3170 3170 3170 3172 3175 3177 3178 3179 3178 3177 3175 3168 3167 3176 3177 3176 3180 3186 3190 3196 3198 3200 3201 3204 3204 3204 3208 3209 3210 3213 3215 3217 3224 3215 3217 3220 3223 3225 3225 3227 3227 3226 3226 3224
3168 3168 3168 3168 3167 3171 3173 3176 3176 3177 3176 3173 3169 3169 3171 3173 3179 3185 3191 3196 3199 3199 3200 3205 3201 3204 3204 3205 3205 3209 3213 3212 3215 3215 3216 3217 3218 3220 3222 3223 3222 3222 3222 3221
3163 3161 3160 3162 3161 3165 3168 3169 3172 3169 3168 3169 3168 3170 3171 3175 3176 3183 3187 3190 3194 3192 3195 3195 3199 3199 3202 3205 3206 3209 3210 3211 3212 3214 3215 3215 3215 3217 3218 3219 3220 3220 3220 3221
3161 3159 3158 3159 3155 3162 3164 3167 3168 3166 3166 3167 3164 3164 3166 3172 3171 3177 3179 3181 3186 3189 3191 3193 3195 3197 3199 3201 3201 3204 3207 3208 3208 3209 3211 3211 3211 3212 3213 3214 3216 3215 3216 3217
3157 3157 3157 3157 3160 3159 3162 3162 3163 3164 3165 3165 3166 3168 3165 3168 3167 3167 3177 3183 3185 3187 3188 3190 3191 3191 3193 3197 3200 3202 3202 3203 3204 3205 3205 3206 3206 3207 3207 3208 3209 3209 3211 3211
3151 3153 3152 3153 3154 3157 3155 3157 3159 3159 3159 3159 3160 3168 3168 3167 3170 3167 3177 3180 3182 3183 3187 3189 3190 3190 3193 3195 3197 3197 3197 3197 3199 3200 3200 3201 3200 3200 3200 3201 3202 3204 3205 3202
3148 3148 3150 3154 3154 3154 3152 3154 3155 3156 3157 3157 3158 3164 3166 3176 3173 3172 3173 3177 3182 3184 3186 3189 3189 3189 3189 3189 3190 3190 3191 3192 3193 3194 3194 3195 3195 3195 3195 3200 3201 3198 3197 3196
3146 3146 3148 3153 3155 3155 3152 3152 3153 3154 3154 3153 3153 3158 3166 3171 3176 3175 3177 3176 3179 3182 3184 3185 3186 3187 3188 3187 3185 3186 3186 3186 3187 3187 3190 3192 3193 3193 3191 3193 3191 3191 3191 3189
3146 3146 3147 3149 3152 3152 3152 3151 3152 3151 3151 3151 3154 3158 3162 3164 3168 3170 3169 3171 3174 3178 3179 3180 3181 3181 3181 3182 3182 3183 3183 3183 3183 3185 3186 3188 3188 3188 3187 3186 3185 3184 3183 3180
3144 3145 3147 3147 3149 3151 3152 3149 3150 3150 3150 3150 3153 3157 3160 3164 3166 3169 3169 3169 3170 3171 3174 3176 3176 3178 3178 3179 3180 3181 3181 3182 3182 3182 3182 3182 3181 3180 3179 3179 3177 3175 3172 3170
3145 3145 3146 3147 3149 3149 3150 3153 3154 3151 3150 3151 3151 3160 3163 3165 3165 3165 3168 3169 3170 3171 3172 3173 3175 3175 3176 3177 3178 3177 3177 3177 3176 3176 3176 3175 3173 3172 3170 3169 3166 3163 3161 3158
3142 3144 3144 3144 3145 3150 3154 3154 3154 3153 3151 3153 3157 3160 3162 3160 3160 3163 3164 3165 3169 3171 3169 3171 3173 3174 3174 3174 3174 3174 3173 3171 3170 3168 3167 3165 3164 3162 3160 3158 3155 3152 3149 3146
3140 3143 3142 3145 3145 3152 3155 3156 3156 3156 3159 3161 3160 3161 3161 3161 3161 3160 3159 3161 3165 3167 3168 3169 3170 3170 3169 3170 3168 3167 3165 3164 3162 3160 3157 3156 3154 3152 3151 3149 3147 3145 3142 3138
3138 3141 3142 3143 3145 3154 3152 3156 3155 3162 3160 3163 3163 3160 3159 3159 3158 3160 3160 3161 3165 3167 3167 3167 3167 3166 3165 3164 3162 3160 3158 3156 3155 3152 3150 3149 3148 3146 3144 3142 3140 3137 3133 3129
3141 3139 3142 3142 3145 3148 3151 3155 3157 3156 3160 3159 3162 3160 3160 3160 3162 3160 3159 3161 3163 3163 3163 3163 3162 3160 3158 3157 3156 3154 3152 3150 3148 3146 3145 3144 3142 3140 3138 3136 3133 3129 3125 3121
3142 3143 3143 3144 3144 3149 3150 3154 3156 3155 3155 3158 3157 3156 3158 3159 3160 3160 3159 3158 3159 3160 3159 3158 3156 3154 3151 3150 3150 3148 3146 3144 3142 3141 3140 3138 3137 3134 3131 3128 3126 3123 3119 3114
3143 3144 3145 3145 3146 3147 3149 3151 3152 3153 3151 3155 3154 3153 3153 3154 3156 3157 3157 3156 3156 3156 3156 3154 3152 3150 3148 3145 3143 3141 3139 3137 3136 3135 3134 3132 3130 3128 3125 3123 3120 3117 3114 3109
3139 3141 3143 3143 3144 3144 3145 3149 3150 3151 3151 3151 3153 3154 3151 3150 3150 3150 3149 3149 3149 3150 3150 3148 3146 3144 3142 3139 3137 3135 3134 3132 3131 3130 3128 3126 3124 3122 3120 3117 3115 3113 3109 3106
3141 3141 3142 3142 3143 3145 3146 3147 3148 3148 3149 3150 3150 3150 3150 3149 3148 3146 3145 3146 3146 3145 3144 3143 3141 3139 3137 3135 3133 3131 3129 3128 3127 3125 3122 3121 3118 3116 3113 3113 3111 3109 3107 3102
3141 3140 3140 3140 3141 3142 3145 3145 3145 3145 3146 3146 3146 3146 3146 3146 3145 3144 3143 3142 3142 3142 3140 3138 3135 3133 3131 3129 3127 3125 3125 3123 3122 3119 3117 3114 3112 3111 3110 3108 3106 3104 3100 3096